Location: Nitra
(0.0000°N, 18.0833°E)
Time: 14:13:33
(UTC+02:00)

Courier 1B Rocket - Visible Passes

Search period start: 30 March 2023 00:00
Search period end: 09 April 2023 00:00
Orbit: 920 x 1202 km, 28.2° (Epoch: 30 March)

Date Brightness Start Highest point End Pass type
(mag) Time Alt. Az. Time Alt. Az. Time Alt. Az.
30 Mar 6.4 05:16:30 20° SSW 05:16:30 20° SSW 05:20:48 10° SSE visible
31 Mar 7.2 04:19:29 14° SSE 04:19:29 14° SSE 04:20:23 10° SSE visible
01 Apr 7.0 05:08:49 12° SSW 05:08:49 12° SSW 05:10:26 10° S visible
06 Apr 7.1 21:02:16 10° NNW 21:04:59 15° N 21:04:59 15° N visible
07 Apr 7.2 20:02:20 10° N 20:04:48 12° NNE 20:07:14 10° NE visible
07 Apr 7.5 21:53:00 10° NW 21:54:09 14° NNW 21:54:09 14° NNW visible
08 Apr 6.6 20:52:13 10° NNW 20:56:57 24° NNE 20:56:57 24° NNE visible
